[[{"header":{"parameterUnit":"m.s-1","parameterCategory":2,"la1":30.2991,"la2":30.254,"lo1":-89.0895,"lo2":-89.0444,"dy":0.0017,"dx":0.0017,"nx":28,"ny":28,"refTime":"2025-07-16T21:00:00:Z","depth":"0","parameterNumber":2,"parameterNumberName":"U-component_of_CURRENTS"},"data":[0,0,0,0,0,0,0,0,0,0,0,0,0,0,0,0,0,0,0,0,0,0,0,0,0,0,0,0,0,0,0,0,0,0,0,0,0,0,0,0,0,0,0,0,0,0,0,0,0,0,0,0,0,0,0,0,0,0,0.2705,0.2705,0,0.2711,0.2711,0.2712,0.2745,0.2745,0.2746,0.2747,0.2774,0.2774,0.2774,0,0,0,0,0,0,0,0,0,0,0,0,0,0.2699,0.2699,0.2705,0.2705,0.2705,0.2711,0.2711,0.2712,0.2744,0.2745,0.2746,0.2747,0.2774,0.2774,0.2774,0,0,0,0,0,0,0,0,0,0,0,0,0,0.2703,0.2699,0.2705,0.2723,0.2725,0.2711,0.2712,0.2712,0.2744,0.2745,0.2747,0.2748,0.2774,0.2774,0.2774,0.2749,0,0,0.2774,0.2774,0,0,0,0,0,0,0,0,0.2702,0.2703,0.272,0.2722,0.2723,0.2729,0.2719,0.2725,0.2744,0.2736,0.2747,0.2748,0.276,0.2761,0.2759,0.275,0.2751,0.2774,0.2773,0.2773,0.2773,0,0,0,0,0,0,0,0.2702,0.2703,0.2707,0.272,0.2722,0.2722,0.2725,0.272,0.2741,0.2737,0.274,0.274,0.2761,0.2759,0.276,0.2752,0.2774,0.2773,0.2773,0.2773,0.2878,0.2881,0,0,0,0,0,0,0.2702,0.2702,0.2707,0.2708,0.2716,0.2722,0.2724,0.2726,0.2741,0.2745,0.2739,0.2742,0.2758,0.276,0.2761,0.2839,0.2773,0.2773,0.2773,0.2875,0.2879,0.2882,0,0,0,0,0,0,0.2702,0.2702,0.2707,0.2705,0.2706,0.2721,0.2722,0.2725,0.2731,0.2743,0.2747,0.2744,0.2759,0.2761,0.2786,0.2837,0.2773,0.2773,0.2872,0.2876,0.288,0.2928,0,0,0,0,0,0,0.2701,0.2702,0.2702,0.2705,0.2706,0.271,0.2721,0.2724,0.273,0.2733,0.2747,0.2751,0.276,0.2786,0.2786,0.2835,0.2773,0.2868,0.2874,0.2879,0.2923,0.2933,0.2942,0,0,0,0,0,0.2701,0.2692,0.2702,0.2703,0.2706,0.271,0.2711,0.2725,0.2729,0.2734,0.2757,0.2751,0.2821,0.2787,0.2786,0.2837,0.2866,0.2872,0.2878,0.2918,0.2931,0.2942,0,0,0,0,0,0,0.2678,0.2695,0.2706,0.27,0.2712,0.2716,0.2714,0.2723,0.2741,0.2745,0.2759,0.2765,0.282,0.2816,0.2778,0.289,0.2853,0.2859,0.2884,0.2896,0.2905,0.2907,0.2773,0,0,0,0,0,0.2675,0.2682,0.2695,0.2691,0.2695,0.2705,0.2706,0.2717,0.2731,0.274,0.2753,0.2787,0.2842,0.2856,0.2888,0.2917,0.2953,0.2962,0.2972,0.298,0.2986,0.3082,0.3101,0.2902,0.2902,0.2902,0,0,0.2663,0.2674,0.2676,0.2689,0.2694,0.2725,0.2709,0.2711,0.2753,0.2738,0.2786,0.2811,0.2859,0.292,0.2945,0.2921,0.3062,0.2988,0.2994,0.2996,0.3091,0.311,0.3127,0.2907,0.2906,0.2905,0,0,0.2661,0.2654,0.2673,0.2689,0.2706,0.272,0.2724,0.2734,0.2755,0.279,0.2825,0.2874,0.2914,0.2978,0.3016,0.3092,0.3113,0.3111,0.3152,0.3245,0.3262,0.3277,0.3367,0.339,0.3111,0.3111,0.3111,0,0.2653,0.2674,0.2676,0.2708,0.2723,0.2727,0.2756,0.2785,0.2808,0.2829,0.2817,0.293,0.2956,0.3073,0.3113,0.3114,0.3166,0.3097,0.3256,0.3272,0.3286,0.3375,0.34,0.3114,0.3114,0.3114,0.3113,0,0.2682,0.27,0.2705,0.2762,0.2781,0.279,0.2836,0.2858,0.2873,0.2902,0.2985,0.3025,0.3093,0.3127,0.3141,0.3273,0.3279,0.3259,0.3219,0.3309,0.3398,0.3422,0.3119,0.3118,0.3117,0.3116,0,0,0.2671,0.2717,0.2723,0.2745,0.2801,0.2811,0.2888,0.2944,0.2988,0.3026,0.3093,0.3195,0.3195,0.324,0.3273,0.3351,0.3502,0.3347,0.335,0.3423,0.372,0.3619,0.3636,0.3509,0.3513,0.3516,0.3747,0,0.2696,0.2743,0.2773,0.2825,0.2847,0.2883,0.295,0.3006,0.3049,0.3113,0.3179,0.3254,0.3252,0.3284,0.3369,0.3472,0.3566,0.3442,0.3633,0.3639,0.3527,0.366,0.3414,0.3589,0.3771,0.3775,0.3778,0,0.2725,0.2751,0.2793,0.2841,0.2854,0.2894,0.297,0.3033,0.314,0.3173,0.3257,0.3302,0.3445,0.3409,0.3642,0.3564,0.365,0.3719,0.3729,0.363,0.3583,0.3528,0.3626,0.3548,0.3815,0.3812,0.3809,0,0.2703,0.2761,0.2783,0.2802,0.2872,0.2897,0.2941,0.3039,0.3091,0.3216,0.3263,0.3413,0.3497,0.3636,0.3763,0.3725,0.4,0.3963,0.3963,0.3957,0.3782,0.3752,0.3809,0.4132,0.4132,0.4131,0.413,0,0.271,0.273,0.2764,0.2778,0.2808,0.287,0.2921,0.2991,0.3098,0.3171,0.3286,0.3379,0.3557,0.3713,0.3819,0.3971,0.4056,0.4005,0.4021,0.3793,0.3763,0.3709,0.3699,0.414,0.4138,0.4136,0.4135,0,0.269,0.2712,0.2736,0.2785,0.2795,0.2819,0.2889,0.2936,0.3048,0.3155,0.3201,0.3399,0.3597,0.3759,0.4,0.4036,0.4078,0.4212,0.3927,0.3902,0.3779,0.378,0.3748,0.3665,0.4265,0.4264,0.4263,0,0.269,0.2694,0.2719,0.2723,0.2739,0.2774,0.2803,0.29,0.2955,0.3162,0.3215,0.3432,0.3556,0.3864,0.3957,0.4131,0.4056,0.4012,0.3882,0.3768,0.3784,0.3649,0.3572,0.3696,0.369,0.3686,0.3682,0,0.2688,0.2683,0.2697,0.2695,0.2705,0.2719,0.2764,0.2794,0.2929,0.3032,0.3197,0.3314,0.3555,0.3616,0.3806,0.3875,0.3787,0.3925,0.3889,0.3418,0.3196,0.3121,0.3562,0.3643,0.3647,0.365,0.3652,0.3653,0.268,0.2678,0.2676,0.2672,0.267,0.2659,0.2654,0.2716,0.279,0.2914,0.3084,0.3183,0.3312,0.3521,0.3568,0.3478,0.355,0.3399,0.3444,0.3343,0.3139,0.3489,0.3519,0.3522,0.3525,0.3527,0.353,0,0.2675,0.2663,0.2655,0.2631,0.2592,0.2609,0.2625,0.2612,0.2658,0.2764,0.2876,0.2939,0.2981,0.3067,0.3074,0.3011,0.2874,0.2975,0.2732,0.2711,0.3096,0.2941,0.2743,0.2743,0.2744,0.2744,0.2744,0.2744,0.2674,0.2654,0.2641,0.2562,0.253,0.2469,0.2458,0.2452,0.248,0.2491,0.2489,0.2561,0.273,0.2832,0.2755,0.2687,0.2548,0.2403,0.2533,0.2797,0.2839,0.2878,0.2728,0.2489,0.2489,0.1934,0.193,0.1927]},{"header":{"parameterUnit":"m.s-1","parameterCategory":2,"la1":30.2991,"la2":30.254,"lo1":-89.0895,"lo2":-89.0444,"dy":0.0017,"dx":0.0017,"nx":28,"ny":28,"refTime":"2025-07-16T21:00:00:Z","depth":"0","parameterNumber":3,"parameterNumberName":"V-component_of_CURRENTS"},"data":[0,0,0,0,0,0,0,0,0,0,0,0,0,0,0,0,0,0,0,0,0,0,0,0,0,0,0,0,0,0,0,0,0,0,0,0,0,0,0,0,0,0,0,0,0,0,0,0,0,0,0,0,0,0,0,0,0,0,0.0517,0.0516,0,0.0435,0.0434,0.0434,0.0361,0.036,0.0359,0.0358,0.0246,0.0244,0.0242,0,0,0,0,0,0,0,0,0,0,0,0,0,0.0574,0.0574,0.0518,0.0516,0.0515,0.0435,0.0434,0.0433,0.0362,0.036,0.0359,0.0358,0.0247,0.0244,0.0242,0,0,0,0,0,0,0,0,0,0,0,0,0,0.0529,0.0574,0.0518,0.0468,0.0462,0.0435,0.0434,0.0433,0.0362,0.036,0.0359,0.0357,0.0247,0.0244,0.0241,0.0254,0,0,0.0232,0.0231,0,0,0,0,0,0,0,0,0.0531,0.0527,0.0476,0.0471,0.0465,0.0405,0.0413,0.0371,0.0362,0.0403,0.0358,0.0357,0.0296,0.0289,0.0281,0.0249,0.0244,0.0232,0.023,0.0229,0.0228,0,0,0,0,0,0,0,0.0535,0.053,0.0487,0.0475,0.0468,0.0436,0.0429,0.0405,0.036,0.0399,0.0393,0.0381,0.0293,0.0284,0.0277,0.0242,0.0232,0.0229,0.0227,0.0226,0.0266,0.0269,0,0,0,0,0,0,0.0544,0.0533,0.049,0.0484,0.0492,0.0436,0.0428,0.0428,0.0361,0.0349,0.0382,0.0377,0.029,0.0281,0.0273,0.0323,0.0229,0.0226,0.0224,0.0264,0.0267,0.027,0,0,0,0,0,0,0.0546,0.0542,0.0493,0.0504,0.0495,0.0437,0.0437,0.0427,0.0414,0.0348,0.0335,0.0379,0.0288,0.0277,0.0268,0.0316,0.0225,0.0222,0.026,0.0265,0.0269,0.0398,0,0,0,0,0,0,0.0548,0.0543,0.0557,0.0506,0.0495,0.0498,0.0438,0.0426,0.0408,0.0401,0.0342,0.033,0.0286,0.0273,0.0265,0.031,0.0219,0.0256,0.0262,0.0267,0.039,0.0406,0.042,0,0,0,0,0,0.0551,0.0575,0.0558,0.0553,0.0513,0.05,0.0494,0.0446,0.041,0.0426,0.0382,0.0331,0.0302,0.0273,0.0263,0.0308,0.0254,0.0261,0.0267,0.0383,0.0403,0.042,0,0,0,0,0,0,0.0617,0.0569,0.0549,0.0561,0.0541,0.0487,0.0491,0.0456,0.0434,0.0422,0.0355,0.0343,0.0358,0.032,0.0289,0.0341,0.0275,0.028,0.0368,0.0385,0.04,0.0415,0.0217,0,0,0,0,0,0.0637,0.0637,0.0595,0.0608,0.0598,0.0547,0.0536,0.0506,0.0471,0.0459,0.0418,0.0387,0.0381,0.037,0.0354,0.0372,0.0341,0.0402,0.0417,0.043,0.0439,0.0433,0.0448,0.0292,0.0292,0.0291,0,0,0.0666,0.064,0.0641,0.0622,0.0596,0.0613,0.0538,0.0529,0.0549,0.0452,0.0468,0.0434,0.0398,0.0425,0.043,0.0395,0.0464,0.0438,0.0449,0.0451,0.0441,0.0456,0.0469,0.0296,0.0295,0.0294,0,0,0.0722,0.0702,0.072,0.0714,0.0685,0.0662,0.0665,0.0622,0.0609,0.0617,0.0565,0.056,0.0537,0.053,0.0521,0.0612,0.0544,0.0611,0.0693,0.0689,0.0701,0.0711,0.0711,0.072,0.0617,0.0617,0.0618,0,0.0765,0.0776,0.0728,0.075,0.0756,0.0693,0.0728,0.0719,0.0683,0.0688,0.0643,0.0631,0.0594,0.0635,0.0667,0.0645,0.0627,0.0623,0.0707,0.0716,0.0724,0.0721,0.0729,0.0624,0.0624,0.0623,0.0622,0,0.0822,0.0846,0.0859,0.0868,0.0877,0.0895,0.0874,0.0885,0.0854,0.0835,0.0855,0.0803,0.0796,0.0794,0.0751,0.0808,0.0772,0.0725,0.0656,0.0747,0.0739,0.0745,0.0635,0.0632,0.063,0.0628,0,0,0.0892,0.0898,0.0906,0.0934,0.0938,0.0952,0.1001,0.1023,0.1052,0.102,0.1059,0.1042,0.0993,0.0982,0.0933,0.0923,0.0966,0.0854,0.085,0.0846,0.0961,0.0916,0.0917,0.0925,0.0927,0.0928,0.0938,0,0.0958,0.1012,0.1004,0.1088,0.1121,0.1106,0.1159,0.1175,0.1166,0.1193,0.1145,0.116,0.1073,0.107,0.1052,0.0988,0.0986,0.0968,0.0879,0.0877,0.0819,0.0924,0.0831,0.083,0.0943,0.0944,0.0945,0,0.1024,0.105,0.1125,0.1192,0.1206,0.1252,0.1316,0.1357,0.1381,0.1372,0.1369,0.1322,0.1323,0.1224,0.1165,0.1154,0.1077,0.1014,0.1012,0.0926,0.0844,0.0754,0.0836,0.069,0.0954,0.0953,0.0952,0,0.1077,0.1148,0.1207,0.1228,0.1288,0.1332,0.137,0.141,0.1456,0.1488,0.1519,0.1485,0.1483,0.1385,0.1246,0.1214,0.1163,0.1103,0.0995,0.099,0.0872,0.0855,0.0791,0.107,0.107,0.1069,0.1069,0,0.1147,0.1201,0.1235,0.1268,0.1356,0.139,0.1482,0.1511,0.1576,0.1655,0.1612,0.1664,0.1521,0.1463,0.1316,0.1182,0.122,0.1036,0.1,0.0918,0.0905,0.0737,0.0677,0.107,0.107,0.107,0.107,0,0.1193,0.1213,0.1289,0.1355,0.1379,0.1444,0.1542,0.1612,0.1669,0.1776,0.1799,0.1815,0.1762,0.1595,0.145,0.1289,0.1055,0.1084,0.1,0.0954,0.0721,0.0672,0.0595,0.0529,0.0995,0.0994,0.0993,0,0.1218,0.1255,0.1332,0.1377,0.1406,0.1496,0.1562,0.164,0.1719,0.1873,0.1933,0.1944,0.195,0.1725,0.1459,0.1219,0.1051,0.0944,0.087,0.0724,0.0642,0.061,0.0558,0.0771,0.0768,0.0766,0.0765,0,0.1265,0.1284,0.134,0.1415,0.1488,0.1583,0.1682,0.1757,0.1883,0.1994,0.2143,0.2178,0.2003,0.1734,0.1391,0.1197,0.0827,0.0897,0.076,0.0491,0.0436,0.0348,0.0755,0.0746,0.0748,0.0749,0.075,0.0751,0.1289,0.1333,0.139,0.1461,0.1552,0.1661,0.1746,0.1877,0.2032,0.2219,0.2266,0.2306,0.192,0.1478,0.1215,0.0675,0.0769,0.0471,0.0436,0.0426,0.0329,0.071,0.0646,0.0648,0.0649,0.065,0.065,0,0.13,0.1345,0.1426,0.1523,0.1617,0.166,0.1823,0.1929,0.2115,0.2265,0.2399,0.2158,0.1678,0.12,0.0538,0.0233,0.0128,0.006,-0.0031,-0.0052,0.0281,0.0233,0.0058,0.0058,0.0058,0.0058,0.0059,0.0059,0.1308,0.1366,0.1404,0.1541,0.1621,0.1766,0.1859,0.2036,0.2156,0.2304,0.2274,0.2269,0.1872,0.0717,-0.0038,-0.0192,-0.0359,-0.0413,-0.0429,-0.0248,-0.0214,-0.0181,-0.0242,-0.0513,-0.0514,-0.0793,-0.0796,-0.0798]}],[{"header":{"parameterUnit":"m.s-1","parameterCategory":2,"la1":30.2991,"la2":30.254,"lo1":-89.0895,"lo2":-89.0444,"dy":0.0017,"dx":0.0017,"nx":28,"ny":28,"refTime":"2025-07-16T21:00:00:Z","depth":"2","parameterNumber":2,"parameterNumberName":"U-component_of_CURRENTS"},"data":[0,0,0,0,0,0,0,0,0,0,0,0,0,0,0,0,0,0,0,0,0,0,0,0,0,0,0,0,0,0,0,0,0,0,0,0,0,0,0,0,0,0,0,0,0,0,0,0,0,0,0,0,0,0,0,0,0,0,0.2451,0.2452,0,0.2548,0.2549,0.2549,0.2623,0.2625,0.2626,0.2627,0.2639,0.2638,0.2637,0,0,0,0,0,0,0,0,0,0,0,0,0,0.2387,0.2387,0.2451,0.2452,0.2454,0.2548,0.2549,0.2549,0.2623,0.2625,0.2626,0.2627,0.2639,0.2638,0.2637,0,0,0,0,0,0,0,0,0,0,0,0,0,0.2437,0.2387,0.245,0.2506,0.2512,0.2548,0.2549,0.255,0.2623,0.2625,0.2626,0.2628,0.2639,0.2638,0.2637,0.2596,0,0,0.2634,0.2633,0,0,0,0,0,0,0,0,0.2434,0.2439,0.2496,0.2502,0.2509,0.258,0.2531,0.2563,0.2622,0.2575,0.2627,0.2629,0.2613,0.2614,0.2623,0.2596,0.2597,0.2633,0.2633,0.2632,0.2632,0,0,0,0,0,0,0,0.2431,0.2436,0.2484,0.2498,0.2506,0.2546,0.2554,0.2538,0.2578,0.258,0.2587,0.2605,0.2616,0.2624,0.2623,0.2597,0.2634,0.2633,0.2632,0.2631,0.2695,0.2697,0,0,0,0,0,0,0.2424,0.2432,0.2481,0.2487,0.2481,0.2546,0.2555,0.2551,0.258,0.2589,0.2603,0.2608,0.2625,0.2625,0.2624,0.2679,0.2632,0.2631,0.2631,0.2692,0.2695,0.2698,0,0,0,0,0,0,0.2421,0.2426,0.2477,0.2467,0.2478,0.2545,0.2541,0.2552,0.2576,0.26,0.2606,0.2618,0.2626,0.2626,0.2624,0.2676,0.2631,0.263,0.269,0.2693,0.2697,0.2722,0,0,0,0,0,0,0.2419,0.2424,0.2444,0.2466,0.2478,0.2493,0.254,0.2553,0.2586,0.2593,0.2613,0.2616,0.2627,0.2625,0.2623,0.2673,0.2629,0.2687,0.2691,0.2695,0.2718,0.2726,0.2733,0,0,0,0,0,0.2416,0.2411,0.2444,0.2452,0.2494,0.2493,0.2501,0.2554,0.2585,0.2583,0.2609,0.2616,0.2655,0.2624,0.2621,0.2673,0.2685,0.269,0.2695,0.2715,0.2725,0.2733,0,0,0,0,0,0,0.2371,0.242,0.2456,0.2463,0.2483,0.2507,0.2521,0.2552,0.2571,0.2586,0.2606,0.2609,0.2649,0.2645,0.2612,0.2712,0.2686,0.2691,0.2703,0.2712,0.2719,0.2728,0.2628,0,0,0,0,0,0.2377,0.2389,0.2433,0.2429,0.2447,0.2487,0.2505,0.2532,0.2548,0.2561,0.2589,0.2626,0.2665,0.2671,0.2699,0.2708,0.2723,0.2757,0.2764,0.277,0.278,0.2838,0.2851,0.2715,0.2715,0.2715,0,0,0.2353,0.2383,0.239,0.2424,0.2446,0.2486,0.2499,0.2511,0.2553,0.2553,0.2614,0.2642,0.2675,0.2721,0.274,0.272,0.2816,0.2776,0.2781,0.2788,0.2845,0.2858,0.2869,0.2719,0.2718,0.2718,0,0,0.2317,0.2339,0.2363,0.2396,0.2445,0.2469,0.2474,0.2517,0.2547,0.2583,0.2632,0.2678,0.2714,0.2766,0.2792,0.2845,0.2858,0.2875,0.2904,0.296,0.2971,0.2981,0.3007,0.3019,0.287,0.287,0.287,0,0.2283,0.2334,0.236,0.2409,0.244,0.2465,0.25,0.2533,0.2576,0.2599,0.2608,0.2731,0.2746,0.2832,0.2867,0.2863,0.2886,0.286,0.2967,0.2977,0.2987,0.3012,0.3025,0.2872,0.2872,0.2872,0.2871,0,0.2326,0.2353,0.2352,0.2437,0.2467,0.2474,0.2539,0.2578,0.2616,0.2654,0.2738,0.2779,0.2851,0.2885,0.2885,0.2986,0.2977,0.2971,0.2936,0.3002,0.3024,0.3037,0.2875,0.2874,0.2873,0.2873,0,0,0.2236,0.2357,0.2365,0.2393,0.2481,0.2486,0.2567,0.2622,0.2674,0.2738,0.2806,0.2895,0.2922,0.2956,0.2991,0.3041,0.3119,0.3035,0.3037,0.3045,0.3231,0.3008,0.3001,0.3133,0.3136,0.3138,0.3214,0,0.2244,0.2332,0.2405,0.2447,0.2469,0.2538,0.26,0.2663,0.2719,0.279,0.2856,0.2928,0.2949,0.2991,0.305,0.3107,0.3157,0.3098,0.318,0.3183,0.2964,0.3009,0.2828,0.2862,0.3227,0.3229,0.323,0,0.2288,0.2317,0.2392,0.2431,0.2452,0.2508,0.2599,0.2656,0.2767,0.2821,0.2921,0.2963,0.3068,0.3065,0.3205,0.3168,0.3207,0.3243,0.3247,0.3039,0.2983,0.2861,0.2871,0.3252,0.325,0.3248,0.3247,0,0.2231,0.2296,0.2345,0.2375,0.2454,0.2502,0.255,0.2666,0.271,0.285,0.2901,0.3026,0.3098,0.318,0.3231,0.3237,0.3351,0.3363,0.3208,0.3193,0.3052,0.3017,0.3464,0.3464,0.3464,0.3464,0.3464,0,0.2221,0.2236,0.2322,0.2348,0.2378,0.2452,0.2527,0.2613,0.2722,0.2783,0.2905,0.2982,0.3135,0.3198,0.3246,0.3236,0.3365,0.3217,0.3199,0.3051,0.3017,0.3367,0.3355,0.3467,0.3466,0.3466,0.3465,0,0.2169,0.2248,0.2265,0.2336,0.2364,0.2391,0.2502,0.2538,0.2672,0.2769,0.2809,0.2966,0.3059,0.3145,0.3276,0.3231,0.3254,0.322,0.3006,0.2958,0.3066,0.3055,0.308,0.3073,0.3067,0.3062,0.3057,0,0.214,0.2156,0.2245,0.2257,0.2298,0.2356,0.239,0.2518,0.2573,0.2748,0.2772,0.2892,0.293,0.2988,0.2979,0.2983,0.3126,0.279,0.2751,0.3047,0.3029,0.3027,0.3025,0.2603,0.2596,0.259,0.2585,0,0.2026,0.2101,0.2131,0.2183,0.2222,0.225,0.2322,0.235,0.2501,0.2576,0.2647,0.2667,0.2734,0.2645,0.2622,0.2605,0.2761,0.2653,0.3066,0.2678,0.2589,0.2573,0.2589,0.2529,0.2534,0.2538,0.2542,0.2544,0.1938,0.1937,0.2024,0.2076,0.2123,0.2136,0.2129,0.2191,0.2236,0.2297,0.2393,0.238,0.2427,0.2275,0.2208,0.2194,0.2375,0.2326,0.2351,0.2382,0.2262,0.2161,0.2,0.2002,0.2004,0.2006,0.2008,0,0.1831,0.1887,0.1891,0.195,0.1959,0.2064,0.2069,0.2009,0.2017,0.2091,0.2085,0.1887,0.1815,0.1913,0.18,0.1741,0.1786,0.1694,0.1799,0.1853,0.1902,0.1763,0.1367,0.1365,0.1363,0.1361,0,0,0.1797,0.1765,0.1784,0.1787,0.1856,0.1838,0.1836,0.1741,0.1749,0.1654,0.167,0.1702,0.1841,0.1584,0.1536,0.1465,0.1652,0.1398,0.1916,0.2096,0.2143,0.2266,0.2111,0,0,0,0,0]},{"header":{"parameterUnit":"m.s-1","parameterCategory":2,"la1":30.2991,"la2":30.254,"lo1":-89.0895,"lo2":-89.0444,"dy":0.0017,"dx":0.0017,"nx":28,"ny":28,"refTime":"2025-07-16T21:00:00:Z","depth":"2","parameterNumber":3,"parameterNumberName":"V-component_of_CURRENTS"},"data":[0,0,0,0,0,0,0,0,0,0,0,0,0,0,0,0,0,0,0,0,0,0,0,0,0,0,0,0,0,0,0,0,0,0,0,0,0,0,0,0,0,0,0,0,0,0,0,0,0,0,0,0,0,0,0,0,0,0,0.0028,0.003,0,0.0084,0.0084,0.0084,0.0089,0.0089,0.0089,0.0089,-0.0016,-0.0019,-0.0022,0,0,0,0,0,0,0,0,0,0,0,0,0,-0.0042,-0.0041,0.0028,0.003,0.0031,0.0084,0.0084,0.0084,0.0089,0.0089,0.0089,0.0089,-0.0015,-0.0019,-0.0022,0,0,0,0,0,0,0,0,0,0,0,0,0,-0.0008,-0.0041,0.0028,0.0045,0.0048,0.0084,0.0084,0.0085,0.0089,0.0089,0.0089,0.0089,-0.0014,-0.0018,-0.0022,-0.005,0,0,-0.0035,-0.0037,0,0,0,0,0,0,0,0,-0.001,-0.0006,0.0041,0.0044,0.0047,0.0086,0.0022,0.0034,0.0089,0.0066,0.0089,0.0089,0.0008,0.0002,0.0004,-0.0055,-0.006,-0.0036,-0.0038,-0.004,-0.0041,0,0,0,0,0,0,0,-0.0012,-0.0008,0.0043,0.0043,0.0046,0.0062,0.0065,0.0024,0.0027,0.0068,0.007,0.0088,0.0007,0.0008,0.0001,-0.0061,-0.0036,-0.0039,-0.0042,-0.0044,-0.0077,-0.0076,0,0,0,0,0,0,-0.0007,-0.0011,0.0042,0.0046,0.0026,0.0063,0.0067,0.0068,0.0031,0.0029,0.0088,0.0088,0.0016,0.0006,-0.0003,0.0009,-0.004,-0.0044,-0.0047,-0.0079,-0.0077,-0.0075,0,0,0,0,0,0,-0.0009,-0.0003,0.0039,0.0025,0.0033,0.0065,0.0065,0.0069,0.0085,0.0049,0.0042,0.0103,0.0015,0.0003,-0.0041,0.0003,-0.0046,-0.005,-0.0081,-0.0078,-0.0076,0.0001,0,0,0,0,0,0,-0.0011,-0.0005,0.0021,0.0025,0.0034,0.0057,0.0066,0.007,0.0099,0.01,0.006,0.005,0.0015,-0.0035,-0.0045,-0.0004,-0.0053,-0.0083,-0.008,-0.0077,-0.0004,0.0006,0.0014,0,0,0,0,0,-0.0014,0.002,0.0022,0.003,0.006,0.0058,0.0062,0.0082,0.01,0.0098,0.0071,0.0052,-0.002,-0.0039,-0.0051,-0.0009,-0.0085,-0.0081,-0.0077,-0.0008,0.0004,0.0014,0,0,0,0,0,0,0.0013,0.0024,0.0026,0.0065,0.0059,0.0061,0.0087,0.0093,0.0076,0.0082,0.0042,0.0028,0.0026,-0.0012,-0.003,-0.0005,-0.0043,-0.0041,0.0015,0.0025,0.0034,0.0054,-0.0057,0,0,0,0,0,0.0029,0.0041,0.0048,0.0071,0.0077,0.0083,0.0098,0.0099,0.0084,0.008,0.0071,0.0053,0.0032,0.0008,-0.0007,-0.0028,-0.007,0.0003,0.0011,0.0019,0.0029,-0.0023,-0.0019,-0.0063,-0.0063,-0.0063,0,0,0.005,0.0054,0.0067,0.0076,0.008,0.0103,0.0089,0.0105,0.0124,0.0067,0.0102,0.0085,0.0037,0.0036,0.0033,0.0003,0.0013,0.0024,0.003,0.0036,-0.0019,-0.0015,-0.0011,-0.006,-0.0061,-0.0061,0,0,0.008,0.0092,0.0114,0.012,0.0132,0.0128,0.0136,0.0153,0.0158,0.017,0.0152,0.0145,0.0129,0.0101,0.008,0.0121,0.0073,0.014,0.0179,0.0129,0.0131,0.0133,0.0095,0.0093,0.0129,0.0129,0.0129,0,0.0073,0.0132,0.0119,0.0147,0.0173,0.0144,0.0179,0.0175,0.0181,0.0186,0.0194,0.0209,0.0163,0.0148,0.0167,0.0142,0.0107,0.0138,0.0138,0.0139,0.0139,0.0099,0.0096,0.0133,0.0133,0.0132,0.0132,0,0.0167,0.0186,0.0198,0.0219,0.0238,0.0253,0.0254,0.0274,0.0293,0.0291,0.0317,0.0278,0.0283,0.028,0.0226,0.0225,0.0199,0.0164,0.0106,0.0148,0.0104,0.0099,0.0139,0.0138,0.0136,0.0135,0,0,0.0147,0.0234,0.0241,0.0249,0.0281,0.0284,0.0327,0.0334,0.0365,0.0381,0.042,0.0397,0.0395,0.0372,0.0331,0.028,0.0245,0.0225,0.022,0.018,0.0142,0.0044,0.0028,0.0203,0.0202,0.0202,0.0113,0,0.0188,0.0273,0.032,0.0356,0.0371,0.0384,0.0419,0.0426,0.0447,0.0474,0.0432,0.0453,0.0419,0.0434,0.0381,0.0285,0.0234,0.0273,0.0115,0.0111,0.0011,0.0019,0.0093,0.0012,0.0108,0.0107,0.0106,0,0.0271,0.0289,0.0382,0.0392,0.0409,0.0457,0.0514,0.0535,0.0547,0.0581,0.0604,0.0565,0.052,0.0482,0.0355,0.0383,0.0276,0.0194,0.0188,0.0065,0.0002,-0.0015,-0.0002,0.0096,0.0097,0.0098,0.0098,0,0.028,0.0322,0.0397,0.0416,0.0449,0.0503,0.0533,0.0581,0.059,0.0654,0.0695,0.0645,0.063,0.051,0.0325,0.0349,0.0149,0.0158,-0.0025,-0.0033,-0.0017,-0.0024,0.0055,0.0055,0.0055,0.0056,0.0056,0,0.0318,0.0344,0.0411,0.0443,0.0507,0.0524,0.062,0.067,0.0697,0.0723,0.0748,0.0752,0.0632,0.0487,0.0338,0.0122,0.0157,-0.0016,-0.0068,0.0012,0.0009,0.0044,0.0044,0.0052,0.0053,0.0054,0.0054,0,0.0333,0.0397,0.0428,0.0484,0.0526,0.0575,0.0671,0.0705,0.0775,0.0824,0.0836,0.0793,0.0656,0.0475,0.0251,0.0134,-0.0067,-0.0168,-0.0068,-0.0107,-0.0199,-0.0193,-0.0307,-0.0311,-0.0315,-0.0318,-0.0321,0,0.0334,0.0367,0.0477,0.0503,0.0548,0.0633,0.0699,0.0774,0.0833,0.0835,0.0852,0.0713,0.0662,0.0317,0.0074,-0.0183,-0.0217,-0.0301,-0.0244,-0.02,-0.0238,-0.0227,-0.0217,-0.0175,-0.0176,-0.0177,-0.0178,0,0.0266,0.0356,0.0412,0.0519,0.0604,0.0664,0.0776,0.0826,0.0897,0.0945,0.0912,0.0829,0.0562,0.0327,-0.0033,-0.0203,-0.024,-0.0332,-0.0321,-0.0117,-0.009,-0.0123,-0.0114,-0.0187,-0.0186,-0.0185,-0.0185,-0.0184,0.0214,0.0256,0.0388,0.0496,0.0609,0.0693,0.0759,0.0864,0.0941,0.1022,0.0907,0.0882,0.0609,0.0198,-0.0097,-0.035,-0.0346,-0.0391,-0.0381,-0.0371,-0.0363,-0.0346,-0.0487,-0.0488,-0.0489,-0.049,-0.049,0,0.0145,0.0251,0.0318,0.0473,0.0595,0.0691,0.0805,0.0873,0.102,0.1095,0.1083,0.0798,0.0548,0.0262,-0.0093,-0.0352,-0.0299,-0.0434,-0.028,-0.0272,-0.0265,-0.0244,-0.0341,-0.0341,-0.0341,-0.0341,0,0,0.013,0.0187,0.0261,0.0444,0.0578,0.0733,0.0813,0.0943,0.1052,0.112,0.1148,0.1034,0.0687,0.0437,0.008,-0.0094,-0.0107,-0.0133,-0.0228,0.0005,0.0017,-0.0227,-0.0187,0,0,0,0,0]}],[{"header":{"parameterUnit":"m.s-1","parameterCategory":2,"la1":30.2991,"la2":30.254,"lo1":-89.0895,"lo2":-89.0444,"dy":0.0017,"dx":0.0017,"nx":28,"ny":28,"refTime":"2025-07-16T21:00:00:Z","depth":"4","parameterNumber":2,"parameterNumberName":"U-component_of_CURRENTS"},"data":[0,0,0,0,0,0,0,0,0,0,0,0,0,0,0,0,0,0,0,0,0,0,0,0,0,0,0,0,0,0,0,0,0,0,0,0,0,0,0,0,0,0,0,0,0,0,0,0,0,0,0,0,0,0,0,0,0,0,0.0659,0.0659,0,0.0654,0.0653,0.0653,0.0669,0.067,0.0671,0.0671,0.0745,0.0746,0.0747,0,0,0,0,0,0,0,0,0,0,0,0,0,0.0639,0.0639,0.0659,0.0659,0.0659,0.0654,0.0653,0.0653,0.0669,0.067,0.0671,0.0672,0.0744,0.0746,0.0747,0,0,0,0,0,0,0,0,0,0,0,0,0,0.0639,0.0639,0.0659,0.0669,0.067,0.0654,0.0653,0.0653,0.0669,0.067,0.0671,0.0672,0.0744,0.0746,0.0747,0.0734,0,0,0.0753,0.0754,0,0,0,0,0,0,0,0,0.0639,0.0639,0.0667,0.0668,0.067,0.0666,0.0673,0.0685,0.0668,0.0665,0.0672,0.0673,0.0727,0.0731,0.0721,0.0737,0.074,0.0753,0.0754,0.0755,0.0755,0,0,0,0,0,0,0,0.0639,0.0639,0.0653,0.0668,0.0669,0.066,0.0661,0.0675,0.0688,0.0666,0.0668,0.0673,0.0728,0.0719,0.0723,0.0742,0.0753,0.0755,0.0756,0.0756,0.0838,0.0839,0,0,0,0,0,0,0.0648,0.0639,0.0653,0.0653,0.0661,0.066,0.0661,0.0663,0.0686,0.0692,0.0672,0.0674,0.0715,0.0721,0.0726,0.0821,0.0755,0.0757,0.0758,0.0837,0.0838,0.0839,0,0,0,0,0,0,0.0647,0.0649,0.0654,0.0649,0.065,0.0659,0.0661,0.0663,0.0676,0.0691,0.0697,0.0688,0.0716,0.0723,0.0776,0.082,0.0757,0.0759,0.0835,0.0837,0.0839,0.0941,0,0,0,0,0,0,0.0646,0.0648,0.0653,0.065,0.065,0.0659,0.0661,0.0662,0.0678,0.0681,0.0706,0.0713,0.0718,0.0773,0.0778,0.0821,0.076,0.0834,0.0836,0.0838,0.0937,0.0946,0.0955,0,0,0,0,0,0.0646,0.0631,0.0653,0.0655,0.0656,0.0659,0.0658,0.0666,0.0678,0.0683,0.0719,0.0713,0.0789,0.0776,0.0781,0.0826,0.0833,0.0836,0.0838,0.0933,0.0944,0.0954,0,0,0,0,0,0,0.0621,0.0632,0.0655,0.0647,0.0668,0.0664,0.0666,0.0677,0.0703,0.0723,0.0733,0.0742,0.0799,0.0793,0.0778,0.0851,0.0807,0.0811,0.0877,0.0888,0.0897,0.0888,0.0762,0,0,0,0,0,0.0622,0.0622,0.064,0.0642,0.0653,0.0668,0.0672,0.0689,0.071,0.0722,0.0763,0.0791,0.0805,0.0834,0.0847,0.0895,0.0871,0.0922,0.0931,0.0939,0.0933,0.0928,0.0936,0.0847,0.0847,0.0847,0,0,0.0617,0.0623,0.0626,0.0639,0.0655,0.0679,0.0673,0.0694,0.0714,0.0729,0.0794,0.0826,0.0821,0.0877,0.0901,0.0886,0.0957,0.0942,0.0949,0.0938,0.0931,0.094,0.0947,0.0849,0.0849,0.0848,0,0,0.0611,0.0617,0.0625,0.0645,0.068,0.0691,0.0706,0.0746,0.076,0.0821,0.0835,0.0893,0.0938,0.0952,0.0952,0.1012,0.0997,0.103,0.1086,0.1082,0.1089,0.1095,0.1101,0.1107,0.1045,0.1045,0.1046,0,0.0602,0.0625,0.0629,0.0652,0.0672,0.0704,0.0733,0.0742,0.0805,0.0831,0.0857,0.0945,0.096,0.0995,0.1035,0.1034,0.1037,0.1051,0.1095,0.11,0.1104,0.1108,0.1113,0.1051,0.105,0.1049,0.1049,0,0.0622,0.0643,0.0649,0.0696,0.0713,0.0742,0.077,0.0816,0.0861,0.0892,0.0964,0.1003,0.1053,0.1078,0.1084,0.1134,0.113,0.1101,0.107,0.112,0.1121,0.1124,0.1058,0.1056,0.1055,0.1053,0,0,0.0587,0.0648,0.0654,0.069,0.0742,0.0759,0.08,0.0843,0.0877,0.0962,0.1011,0.1075,0.1125,0.1127,0.1154,0.118,0.1237,0.1181,0.1178,0.1192,0.1255,0.1196,0.1193,0.1233,0.1234,0.1234,0.1252,0,0.0607,0.0646,0.0678,0.0737,0.0764,0.081,0.0839,0.0887,0.0934,0.0999,0.1039,0.1105,0.1124,0.1186,0.1207,0.1229,0.1248,0.1236,0.1198,0.1197,0.1142,0.1194,0.1236,0.1254,0.1255,0.1256,0.1256,0,0.062,0.0645,0.0686,0.0759,0.0777,0.0822,0.0887,0.0922,0.099,0.1036,0.1111,0.1149,0.1221,0.122,0.1263,0.1267,0.1269,0.1277,0.1276,0.118,0.1143,0.1186,0.1261,0.126,0.126,0.126,0.1259,0,0.0583,0.0656,0.0683,0.0708,0.0786,0.0827,0.0885,0.0949,0.0981,0.1078,0.1133,0.1197,0.1253,0.1264,0.1297,0.1296,0.1326,0.1303,0.124,0.1236,0.1237,0.123,0.1303,0.1303,0.1303,0.1303,0.1303,0,0.0573,0.0607,0.0677,0.0696,0.0753,0.082,0.0883,0.095,0.1033,0.1082,0.116,0.1206,0.1273,0.1299,0.1306,0.129,0.132,0.1254,0.1236,0.1283,0.1281,0.1241,0.1233,0.1304,0.1304,0.1304,0.1304,0,0.0524,0.0567,0.0609,0.0697,0.0734,0.0776,0.0896,0.0933,0.1029,0.1096,0.1142,0.1234,0.1278,0.1306,0.1333,0.1296,0.1287,0.1263,0.1332,0.1316,0.12,0.1198,0.1197,0.1195,0.1194,0.1192,0.1191,0,0.0501,0.051,0.0592,0.0621,0.0671,0.075,0.0797,0.0919,0.0965,0.1097,0.1122,0.1209,0.1253,0.1242,0.1276,0.1267,0.1247,0.1241,0.1209,0.1207,0.1189,0.1189,0.1189,0.1189,0.1188,0.1188,0.1187,0,0.0453,0.0476,0.0506,0.056,0.0619,0.0678,0.0775,0.0807,0.0936,0.1023,0.1099,0.1141,0.1174,0.1202,0.1208,0.1194,0.1251,0.1223,0.1226,0.1196,0.1196,0.118,0.1182,0.1182,0.1182,0.1183,0.1183,0,0.0414,0.0418,0.045,0.05,0.0558,0.0604,0.0666,0.0748,0.0816,0.0978,0.0996,0.1081,0.1165,0.1163,0.1163,0.1157,0.1135,0.1107,0.1115,0.1122,0.1088,0.1076,0.1014,0,0,0,0,0,0.0375,0.0376,0.0401,0.0448,0.0497,0.0539,0.0642,0.0703,0.0827,0.0859,0.0938,0.0974,0.1017,0.1059,0.1033,0.11,0.1117,0.1066,0.1082,0.115,0.1156,0.1123,0,0,0,0,0,0,0.0348,0.0363,0.0372,0.0386,0.0411,0.0464,0.0527,0.0613,0.0652,0.0783,0.0807,0.0913,0.0952,0.1007,0.1008,0.1019,0.1013,0.1123,0.1121,0.1146,0.1152,0.1157,0.1125,0,0,0,0,0]},{"header":{"parameterUnit":"m.s-1","parameterCategory":2,"la1":30.2991,"la2":30.254,"lo1":-89.0895,"lo2":-89.0444,"dy":0.0017,"dx":0.0017,"nx":28,"ny":28,"refTime":"2025-07-16T21:00:00:Z","depth":"4","parameterNumber":3,"parameterNumberName":"V-component_of_CURRENTS"},"data":[0,0,0,0,0,0,0,0,0,0,0,0,0,0,0,0,0,0,0,0,0,0,0,0,0,0,0,0,0,0,0,0,0,0,0,0,0,0,0,0,0,0,0,0,0,0,0,0,0,0,0,0,0,0,0,0,0,0,0.0066,0.0065,0,0.0021,0.002,0.002,0.0017,0.0017,0.0018,0.0018,-0.0115,-0.0119,-0.0123,0,0,0,0,0,0,0,0,0,0,0,0,0,0.0069,0.007,0.0066,0.0065,0.0065,0.0021,0.002,0.002,0.0016,0.0017,0.0018,0.0018,-0.0114,-0.0118,-0.0123,0,0,0,0,0,0,0,0,0,0,0,0,0,0.005,0.007,0.0066,0.0059,0.0058,0.0021,0.002,0.0019,0.0016,0.0017,0.0018,0.0019,-0.0112,-0.0118,-0.0124,-0.0179,0,0,-0.0143,-0.0145,0,0,0,0,0,0,0,0,0.0051,0.005,0.006,0.0059,0.0058,0.0026,-0.0027,-0.0051,0.0016,0.0031,0.0018,0.0019,-0.0076,-0.0085,-0.0095,-0.0185,-0.0191,-0.0143,-0.0147,-0.015,-0.0151,0,0,0,0,0,0,0,0.0053,0.0051,0.0047,0.006,0.0058,0.003,0.0029,-0.0032,-0.0029,0.003,0.003,0.0026,-0.0077,-0.0089,-0.0099,-0.0193,-0.0143,-0.0148,-0.0152,-0.0155,-0.033,-0.0331,0,0,0,0,0,0,0.0063,0.0053,0.0049,0.0046,0.0057,0.003,0.0028,0.0035,-0.0026,-0.0034,0.0025,0.0026,-0.0079,-0.0092,-0.0104,-0.0174,-0.0149,-0.0155,-0.0159,-0.0329,-0.033,-0.0331,0,0,0,0,0,0,0.0063,0.0063,0.0051,0.0048,0.0045,0.003,0.0036,0.0033,0.003,-0.0029,-0.0038,0.0026,-0.0079,-0.0095,-0.0164,-0.0179,-0.0158,-0.0164,-0.0327,-0.0329,-0.033,-0.0315,0,0,0,0,0,0,0.0064,0.0064,0.007,0.0049,0.0045,0.0042,0.0035,0.0032,0.0026,0.0027,-0.0032,-0.0044,-0.008,-0.0154,-0.017,-0.0187,-0.0168,-0.0326,-0.0328,-0.033,-0.0314,-0.0315,-0.0317,0,0,0,0,0,0.0064,0.0071,0.0071,0.007,0.0056,0.0043,0.0038,0.0028,0.0025,0.0028,-0.0026,-0.0041,-0.0176,-0.0161,-0.0178,-0.0198,-0.0325,-0.0328,-0.033,-0.0313,-0.0315,-0.0317,0,0,0,0,0,0,0.007,0.0071,0.0071,0.0077,0.0067,0.0043,0.0037,0.0031,-0.0008,-0.0016,-0.0066,-0.0082,-0.0145,-0.0177,-0.0158,-0.0253,-0.0249,-0.0255,-0.0231,-0.0233,-0.0234,-0.0213,-0.0173,0,0,0,0,0,0.0075,0.0086,0.0076,0.0079,0.0075,0.0056,0.0048,0.0041,0.0005,-0.0008,-0.0057,-0.0114,-0.017,-0.0204,-0.0257,-0.0319,-0.0328,-0.0339,-0.0341,-0.0342,-0.0337,-0.0361,-0.0364,-0.0338,-0.0338,-0.0338,0,0,0.0071,0.0078,0.0079,0.0082,0.0068,0.0056,0.0054,0.0042,0.0033,-0.0023,-0.0068,-0.0124,-0.0188,-0.0252,-0.0282,-0.028,-0.0355,-0.0344,-0.0345,-0.0339,-0.0364,-0.0366,-0.0368,-0.034,-0.0339,-0.0339,0,0,0.0068,0.008,0.0083,0.0079,0.007,0.0058,0.0059,0.003,0.0024,-0.0031,-0.0071,-0.0132,-0.0225,-0.0266,-0.0301,-0.0343,-0.036,-0.0365,-0.036,-0.0384,-0.0386,-0.0388,-0.0402,-0.0405,-0.0366,-0.0366,-0.0366,0,0.0067,0.0076,0.0079,0.0079,0.0075,0.0061,0.0054,0.004,-0.0009,-0.0026,-0.0043,-0.0175,-0.0227,-0.0296,-0.0315,-0.0344,-0.0361,-0.0347,-0.0384,-0.0386,-0.0388,-0.0402,-0.0406,-0.0366,-0.0366,-0.0366,-0.0366,0,0.006,0.0069,0.0068,0.0068,0.0062,0.0056,0.004,0.0023,-0.0,-0.0027,-0.0095,-0.0172,-0.0243,-0.0276,-0.0317,-0.0363,-0.0371,-0.0379,-0.0373,-0.0389,-0.0404,-0.0408,-0.0365,-0.0365,-0.0365,-0.0366,0,0,0.0056,0.0066,0.0065,0.0075,0.0062,0.0059,0.0039,0.0021,0.0012,-0.0053,-0.0077,-0.0186,-0.0223,-0.0263,-0.0317,-0.0351,-0.0386,-0.0376,-0.0378,-0.0378,-0.0438,-0.0413,-0.0415,-0.0404,-0.0404,-0.0405,-0.0442,0,0.0053,0.0066,0.0064,0.0065,0.007,0.0058,0.0047,0.0024,-0.0006,-0.0038,-0.0106,-0.0162,-0.0215,-0.0256,-0.0299,-0.0369,-0.0396,-0.0375,-0.0433,-0.0435,-0.04,-0.0418,-0.0407,-0.0445,-0.0446,-0.0447,-0.0447,0,0.0045,0.0064,0.0074,0.0091,0.009,0.0081,0.0074,0.0064,0.0018,-0.0008,-0.0073,-0.0127,-0.0205,-0.0233,-0.0343,-0.0331,-0.038,-0.0426,-0.0429,-0.0411,-0.0417,-0.0429,-0.0454,-0.0454,-0.0453,-0.0453,-0.0452,0,0.0057,0.007,0.0091,0.0093,0.0099,0.0099,0.0095,0.0063,0.0069,0.0012,-0.0004,-0.0102,-0.0145,-0.0229,-0.0333,-0.0343,-0.0435,-0.0452,-0.047,-0.0468,-0.0485,-0.0482,-0.0505,-0.0505,-0.0505,-0.0505,-0.0505,0,0.0065,0.0076,0.0101,0.0111,0.0135,0.0124,0.0135,0.0116,0.0097,0.0099,0.0017,-0.0009,-0.0147,-0.022,-0.0314,-0.0402,-0.0416,-0.0468,-0.0477,-0.0478,-0.0475,-0.0487,-0.0485,-0.0506,-0.0506,-0.0505,-0.0505,0,0.0067,0.0082,0.011,0.0132,0.0143,0.0157,0.0177,0.0186,0.0161,0.0163,0.0147,0.0058,-0.0051,-0.0172,-0.0309,-0.0363,-0.0457,-0.0477,-0.046,-0.0469,-0.048,-0.0476,-0.0506,-0.0506,-0.0505,-0.0505,-0.0504,0,0.0069,0.0088,0.0134,0.0161,0.0172,0.0198,0.0221,0.0214,0.023,0.0202,0.0207,0.0108,0.0034,-0.0131,-0.0269,-0.0427,-0.0446,-0.0475,-0.0493,-0.0474,-0.0481,-0.0478,-0.0475,-0.0504,-0.0504,-0.0503,-0.0503,0,0.008,0.0099,0.0129,0.0189,0.0223,0.0266,0.0294,0.0314,0.0311,0.0295,0.0255,0.0155,0.0043,-0.0119,-0.0233,-0.035,-0.0453,-0.0471,-0.0474,-0.0491,-0.0471,-0.0478,-0.0476,-0.0502,-0.0502,-0.0502,-0.0502,0,0.0092,0.0117,0.0167,0.0218,0.0267,0.0316,0.0328,0.0347,0.0359,0.0332,0.0315,0.018,0.0093,-0.0077,-0.0189,-0.0299,-0.0333,-0.0352,-0.0362,-0.0365,-0.0318,-0.0273,-0.0248,0,0,0,0,0,0.0108,0.0143,0.0194,0.0253,0.0302,0.0332,0.0376,0.0386,0.0388,0.0373,0.0347,0.0239,0.0061,-0.0028,-0.0135,-0.0191,-0.0355,-0.0317,-0.0383,-0.0493,-0.0495,-0.0462,0,0,0,0,0,0,0.0121,0.017,0.0198,0.0275,0.0318,0.0375,0.0403,0.0406,0.0396,0.0376,0.0274,0.023,0.0042,0.0115,-0.0136,-0.0171,-0.022,-0.0407,-0.0409,-0.0492,-0.0493,-0.0495,-0.0462,0,0,0,0,0]}]]